Вернуться в каталог

ATLAS 5 CENTAUR DEB

АктивенHEO
NORAD 44693·DEBRIS·🇺🇸 United States

Запущен Oct 17, 2018 с Cape Canaveral Space Force Station

Loading…

Ближайшие Пролёты (ближайшие 24 часа)

TLE

СвежийSource: Space-Track

Эпоха: Sep 13, 2026, 10:59 UTC

1 44693U 18079BF  26256.45778192 -.00000164  00000-0  00000-0 0  9997
2 44693  13.5940  33.6213 4676009 312.9519  16.2458  1.78456466 48454

Отслеживайте ATLAS 5 CENTAUR DEB в реальном времени с AllMySat

Download on the App Store